| time (UTC) | temp C | wind direction | speed KPH | gust KPH | rain 1hr cm | rain 24hr cm | rain mn cm | humidity % | barometer mb |
| 20260906131346 | 22 | 69 | 4.8 | 14.5 | 0.00 | 0.00 | 0.00 | 85 | 1016.9 |
| 20260906130841 | 22 | 344 | 4.8 | 16.1 | 0.00 | 0.00 | 0.00 | 86 | 1016.9 |
| 20260906130341 | 22 | 68 | 4.8 | 17.7 | 0.00 | 0.00 | 0.00 | 86 | 1016.8 |
| 20260906125839 | 22 | 69 | 6.4 | 17.7 | 0.00 | 0.00 | 0.00 | 87 | 1016.8 |
| 20260906125341 | 22 | 79 | 6.4 | 17.7 | 0.00 | 0.00 | 0.00 | 87 | 1016.8 |
| 20260906124337 | 22 | 58 | 4.8 | 11.3 | 0.00 | 0.00 | 0.00 | 87 | 1016.8 |
| 20260906123835 | 22 | 29 | 3.2 | 11.3 | 0.00 | 0.00 | 0.00 | 88 | 1016.8 |
| 20260906123335 | 21 | 21 | 3.2 | 8.0 | 0.00 | 0.00 | 0.00 | 89 | 1016.4 |
| 20260906122833 | 21 | 96 | 3.2 | 11.3 | 0.00 | 0.00 | 0.00 | 90 | 1016.4 |
| 20260906121834 | 21 | 70 | 4.8 | 9.7 | 0.00 | 0.00 | 0.00 | 91 | 1016.0 |
| 20260906120830 | 21 | 35 | 3.2 | 8.0 | 0.00 | 0.00 | 0.00 | 92 | 1016.0 |
| 20260906120330 | 21 | 81 | 3.2 | 9.7 | 0.00 | 0.00 | 0.00 | 92 | 1015.8 |
| 20260906115825 | 21 | 58 | 4.8 | 11.3 | 0.00 | 0.00 | 0.00 | 93 | 1015.8 |
| 20260906114810 | 21 | 55 | 4.8 | 14.5 | 0.00 | 0.00 | 0.00 | 93 | 1015.5 |
| 20260906114300 | 21 | 17 | 4.8 | 11.3 | 0.00 | 0.00 | 0.00 | 92 | 1015.5 |
| 20260906113748 | 21 | 58 | 3.2 | 9.7 | 0.00 | 0.00 | 0.00 | 92 | 1015.5 |
| 20260906113248 | 21 | 52 | 4.8 | 11.3 | 0.00 | 0.00 | 0.00 | 92 | 1015.1 |
| 20260906112742 | 21 | 85 | 4.8 | 11.3 | 0.00 | 0.00 | 0.00 | 92 | 1015.1 |
| 20260906112238 | 21 | 86 | 4.8 | 16.1 | 0.00 | 0.00 | 0.00 | 92 | 1015.1 |
| 20260906111236 | 21 | 70 | 6.4 | 9.7 | 0.00 | 0.00 | 0.00 | 92 | 1015.0 |
| 20260906110734 | 21 | 65 | 4.8 | 17.7 | 0.00 | 0.00 | 0.00 | 93 | 1015.0 |
| 20260906110229 | 21 | 61 | 4.8 | 17.7 | 0.00 | 0.00 | 0.00 | 93 | 1015.0 |
| 20260906105731 | 21 | 75 | 4.8 | 11.3 | 0.00 | 0.00 | 0.00 | 94 | 1015.0 |
| 20260906105220 | 21 | 73 | 4.8 | 11.3 | 0.00 | 0.00 | 0.00 | 94 | 1015.0 |
| 20260906104724 | 21 | 52 | 4.8 | 9.7 | 0.00 | 0.00 | 0.00 | 94 | 1014.6 |
| 20260906104208 | 21 | 102 | 3.2 | 9.7 | 0.00 | 0.00 | 0.00 | 94 | 1014.6 |
| 20260906103705 | 21 | 56 | 3.2 | 8.0 | 0.00 | 0.00 | 0.00 | 94 | 1014.5 |
| 20260906103206 | 21 | 42 | 3.2 | 8.0 | 0.00 | 0.00 | 0.00 | 94 | 1014.5 |
| 20260906102706 | 21 | 45 | 3.2 | 8.0 | 0.00 | 0.00 | 0.00 | 94 | 1014.5 |
| 20260906102201 | 21 | 44 | 4.8 | 16.1 | 0.00 | 0.00 | 0.00 | 94 | 1014.4 |
| 20260906101702 | 21 | 58 | 4.8 | 16.1 | 0.00 | 0.00 | 0.00 | 94 | 1014.4 |
| 20260906101202 | 21 | 58 | 3.2 | 11.3 | 0.00 | 0.00 | 0.00 | 94 | 1014.4 |
| 20260906100650 | 21 | 54 | 3.2 | 9.7 | 0.00 | 0.00 | 0.00 | 94 | 1014.4 |
| 20260906100135 | 21 | 86 | 3.2 | 9.7 | 0.00 | 0.00 | 0.00 | 94 | 1014.4 |
| 20260906095618 | 21 | 7 | 3.2 | 9.7 | 0.00 | 0.00 | 0.00 | 94 | 1014.4 |
| 20260906095108 | 21 | 67 | 3.2 | 9.7 | 0.00 | 0.00 | 0.00 | 94 | 1014.3 |
| 20260906094557 | 21 | 51 | 3.2 | 14.5 | 0.00 | 0.00 | 0.00 | 94 | 1014.3 |
| 20260906094049 | 21 | 23 | 3.2 | 14.5 | 0.00 | 0.00 | 0.00 | 94 | 1014.3 |
| 20260906093039 | 21 | 48 | 3.2 | 9.7 | 0.00 | 0.00 | 0.00 | 94 | 1014.4 |
| 20260906092527 | 21 | 52 | 4.8 | 11.3 | 0.00 | 0.00 | 0.00 | 93 | 1014.4 |
| 20260906092018 | 21 | 73 | 3.2 | 11.3 | 0.00 | 0.00 | 0.00 | 93 | 1014.3 |
| 20260906091010 | 21 | 17 | 4.8 | 9.7 | 0.00 | 0.00 | 0.00 | 93 | 1014.3 |
| 20260906090509 | 21 | 44 | 4.8 | 8.0 | 0.00 | 0.00 | 0.00 | 93 | 1014.4 |
| 20260906085508 | 21 | 28 | 3.2 | 6.4 | 0.00 | 0.00 | 0.00 | 93 | 1014.4 |
| 20260906084452 | 21 | 48 | 1.6 | 6.4 | 0.00 | 0.00 | 0.00 | 93 | 1014.3 |
| 20260906083950 | 21 | 31 | 3.2 | 8.0 | 0.00 | 0.00 | 0.00 | 93 | 1014.3 |
| 20260906082452 | 21 | 40 | 4.8 | 9.7 | 0.00 | 0.00 | 0.00 | 92 | 1014.4 |
| 20260906081941 | 21 | 55 | 4.8 | 11.3 | 0.00 | 0.00 | 0.00 | 92 | 1014.4 |
| 20260906081440 | 21 | 31 | 4.8 | 11.3 | 0.00 | 0.00 | 0.00 | 92 | 1014.4 |
| 20260906080940 | 21 | 51 | 4.8 | 11.3 | 0.00 | 0.00 | 0.00 | 92 | 1014.4 |
| 20260906080441 | 21 | 75 | 4.8 | 9.7 | 0.00 | 0.00 | 0.00 | 92 | 1014.4 |
| 20260906075929 | 21 | 25 | 4.8 | 9.7 | 0.00 | 0.00 | 0.00 | 92 | 1014.4 |
| 20260906075420 | 21 | 12 | 4.8 | 11.3 | 0.00 | 0.00 | 0.00 | 92 | 1014.4 |
| 20260906074404 | 21 | 42 | 3.2 | 8.0 | 0.00 | 0.00 | 0.00 | 92 | 1014.4 |
| 20260906073853 | 21 | 38 | 3.2 | 6.4 | 0.00 | 0.00 | 0.00 | 92 | 1014.4 |
| 20260906072843 | 21 | 40 | 3.2 | 9.7 | 0.00 | 0.00 | 0.00 | 92 | 1014.4 |
| 20260906072335 | 21 | 42 | 3.2 | 9.7 | 0.00 | 0.00 | 0.00 | 92 | 1014.4 |
| 20260906071317 | 21 | 50 | 4.8 | 9.7 | 0.00 | 0.00 | 0.00 | 92 | 1014.5 |
| 20260906070807 | 21 | 58 | 4.8 | 8.0 | 0.00 | 0.00 | 0.00 | 92 | 1014.5 |
| 20260906070306 | 21 | 42 | 4.8 | 14.5 | 0.00 | 0.00 | 0.00 | 92 | 1014.6 |
| 20260906065804 | 21 | 75 | 4.8 | 14.5 | 0.00 | 0.00 | 0.00 | 92 | 1014.6 |
| 20260906065306 | 21 | 350 | 4.8 | 11.3 | 0.00 | 0.00 | 0.00 | 92 | 1014.6 |
| 20260906064806 | 21 | 63 | 3.2 | 9.7 | 0.00 | 0.00 | 0.00 | 92 | 1014.7 |
| 20260906063802 | 21 | 32 | 3.2 | 8.0 | 0.00 | 0.00 | 0.00 | 92 | 1014.7 |
| 20260906063257 | 21 | 52 | 3.2 | 8.0 | 0.00 | 0.00 | 0.00 | 93 | 1014.8 |
| 20260906062757 | 21 | 358 | 4.8 | 9.7 | 0.00 | 0.00 | 0.00 | 93 | 1014.8 |
| 20260906062258 | 21 | 27 | 4.8 | 11.3 | 0.00 | 0.00 | 0.00 | 93 | 1014.8 |
| 20260906061757 | 21 | 7 | 4.8 | 11.3 | 0.00 | 0.00 | 0.00 | 93 | 1014.9 |
| 20260906060752 | 21 | 29 | 6.4 | 16.1 | 0.00 | 0.00 | 0.00 | 93 | 1014.9 |
| 20260906060250 | 21 | 27 | 4.8 | 16.1 | 0.00 | 0.00 | 0.00 | 92 | 1014.8 |
| 20260906055752 | 21 | 30 | 4.8 | 9.7 | 0.00 | 0.00 | 0.00 | 92 | 1014.8 |
| 20260906055247 | 21 | 66 | 4.8 | 11.3 | 0.00 | 0.00 | 0.00 | 92 | 1014.8 |
| 20260906054736 | 21 | 338 | 6.4 | 16.1 | 0.00 | 0.00 | 0.00 | 92 | 1014.6 |
| 20260906054231 | 21 | 358 | 6.4 | 16.1 | 0.00 | 0.00 | 0.00 | 92 | 1014.6 |
| 20260906053724 | 21 | 1 | 4.8 | 14.5 | 0.00 | 0.00 | 0.00 | 92 | 1014.6 |
| 20260906053217 | 21 | 30 | 4.8 | 11.3 | 0.00 | 0.00 | 0.00 | 92 | 1014.4 |
| 20260906052707 | 21 | 52 | 4.8 | 12.9 | 0.00 | 0.00 | 0.00 | 92 | 1014.4 |
| 20260906051655 | 21 | 7 | 6.4 | 14.5 | 0.00 | 0.00 | 0.00 | 92 | 1014.4 |
| 20260906051154 | 21 | 52 | 6.4 | 14.5 | 0.00 | 0.00 | 0.00 | 91 | 1014.4 |
| 20260906050633 | 21 | 12 | 6.4 | 17.7 | 0.00 | 0.00 | 0.00 | 91 | 1014.3 |
| 20260906050122 | 21 | 40 | 4.8 | 17.7 | 0.00 | 0.00 | 0.00 | 91 | 1014.3 |
| 20260906045616 | 21 | 51 | 4.8 | 11.3 | 0.00 | 0.00 | 0.00 | 91 | 1014.3 |
| 20260906045106 | 21 | 23 | 4.8 | 12.9 | 0.00 | 0.00 | 0.00 | 91 | 1014.0 |
| 20260906044552 | 21 | 97 | 6.4 | 16.1 | 0.00 | 0.00 | 0.00 | 91 | 1014.0 |
| 20260906044046 | 21 | 34 | 6.4 | 16.1 | 0.00 | 0.00 | 0.00 | 91 | 1014.0 |
| 20260906043540 | 21 | 45 | 4.8 | 12.9 | 0.00 | 0.00 | 0.00 | 91 | 1013.8 |
| 20260906043034 | 21 | 38 | 6.4 | 14.5 | 0.00 | 0.00 | 0.00 | 91 | 1013.8 |
| 20260906042020 | 22 | 73 | 4.8 | 16.1 | 0.00 | 0.00 | 0.00 | 91 | 1013.8 |
| 20260906041514 | 22 | 53 | 6.4 | 16.1 | 0.00 | 0.00 | 0.00 | 91 | 1013.8 |
| 20260906040453 | 22 | 36 | 4.8 | 16.1 | 0.00 | 0.00 | 0.00 | 91 | 1013.7 |
| 20260906035943 | 22 | 81 | 4.8 | 16.1 | 0.00 | 0.00 | 0.00 | 91 | 1013.7 |
| 20260906035440 | 22 | 61 | 4.8 | 14.5 | 0.00 | 0.00 | 0.00 | 91 | 1013.7 |
| 20260906034420 | 22 | 90 | 4.8 | 17.7 | 0.00 | 0.00 | 0.00 | 90 | 1013.7 |
| 20260906033910 | 22 | 49 | 4.8 | 14.5 | 0.00 | 0.00 | 0.00 | 90 | 1013.7 |
| 20260906033400 | 22 | 56 | 4.8 | 14.5 | 0.00 | 0.00 | 0.00 | 90 | 1013.5 |
| 20260906032854 | 22 | 83 | 4.8 | 11.3 | 0.00 | 0.00 | 0.00 | 90 | 1013.5 |
| 20260906032344 | 23 | 59 | 4.8 | 11.3 | 0.00 | 0.00 | 0.00 | 90 | 1013.5 |
| 20260906031840 | 23 | 42 | 4.8 | 11.3 | 0.00 | 0.00 | 0.00 | 90 | 1013.7 |
| 20260906031336 | 23 | 52 | 4.8 | 11.3 | 0.00 | 0.00 | 0.00 | 89 | 1013.7 |
| 20260906030835 | 23 | 66 | 3.2 | 9.7 | 0.00 | 0.00 | 0.00 | 89 | 1013.7 |
| 20260906030334 | 23 | 104 | 3.2 | 9.7 | 0.00 | 0.00 | 0.00 | 89 | 1013.4 |
| 20260906025830 | 23 | 58 | 4.8 | 11.3 | 0.00 | 0.00 | 0.00 | 89 | 1013.4 |
| 20260906025327 | 23 | 79 | 4.8 | 11.3 | 0.00 | 0.00 | 0.00 | 88 | 1013.4 |
| 20260906024828 | 23 | 79 | 4.8 | 11.3 | 0.00 | 0.00 | 0.00 | 88 | 1013.4 |
| 20260906024327 | 23 | 71 | 4.8 | 11.3 | 0.00 | 0.00 | 0.00 | 87 | 1013.4 |
| 20260906023828 | 23 | 51 | 4.8 | 14.5 | 0.00 | 0.00 | 0.00 | 87 | 1013.4 |
| 20260906023322 | 24 | 46 | 6.4 | 14.5 | 0.00 | 0.00 | 0.00 | 87 | 1013.2 |
| 20260906022820 | 24 | 54 | 6.4 | 16.1 | 0.00 | 0.00 | 0.00 | 87 | 1013.2 |
| 20260906022308 | 24 | 65 | 4.8 | 16.1 | 0.00 | 0.00 | 0.00 | 87 | 1013.2 |
| 20260906021752 | 24 | 43 | 4.8 | 11.3 | 0.00 | 0.00 | 0.00 | 87 | 1012.9 |
| 20260906020728 | 25 | 73 | 4.8 | 9.7 | 0.00 | 0.00 | 0.00 | 86 | 1012.9 |
| 20260906020216 | 25 | 44 | 6.4 | 14.5 | 0.00 | 0.00 | 0.00 | 85 | 1012.8 |
| 20260906015700 | 25 | 77 | 6.4 | 17.7 | 0.00 | 0.00 | 0.00 | 85 | 1012.8 |
| 20260906015146 | 25 | 17 | 8.0 | 17.7 | 0.00 | 0.00 | 0.00 | 85 | 1012.7 |
| 20260906014636 | 25 | 38 | 8.0 | 17.7 | 0.00 | 0.00 | 0.00 | 84 | 1012.7 |
| 20260906014131 | 25 | 325 | 8.0 | 22.5 | 0.00 | 0.00 | 0.00 | 84 | 1012.7 |
| 20260906013630 | 25 | 0 | 6.4 | 22.5 | 0.00 | 0.00 | 0.00 | 84 | 1012.5 |
| 20260906013128 | 26 | 12 | 4.8 | 11.3 | 0.00 | 0.00 | 0.00 | 84 | 1012.5 |
| 20260906012629 | 26 | 58 | 4.8 | 11.3 | 0.00 | 0.00 | 0.00 | 84 | 1012.5 |
| 20260906012130 | 26 | 47 | 4.8 | 11.3 | 0.00 | 0.00 | 0.00 | 84 | 1012.3 |
| 20260906011627 | 26 | 3 | 6.4 | 14.5 | 0.00 | 0.00 | 0.00 | 84 | 1012.3 |
| 20260906011129 | 26 | 34 | 6.4 | 14.5 | 0.00 | 0.00 | 0.00 | 83 | 1012.3 |
| 20260906010616 | 26 | 12 | 6.4 | 14.5 | 0.00 | 0.00 | 0.00 | 83 | 1012.2 |
| 20260906005551 | 27 | 7 | 4.8 | 11.3 | 0.00 | 0.00 | 0.00 | 82 | 1012.2 |
| 20260906005046 | 27 | 88 | 4.8 | 11.3 | 0.00 | 0.00 | 0.00 | 81 | 1012.1 |
| 20260906004541 | 27 | 60 | 6.4 | 17.7 | 0.00 | 0.00 | 0.00 | 81 | 1012.1 |
| 20260906004035 | 28 | 21 | 8.0 | 17.7 | 0.00 | 0.00 | 0.00 | 80 | 1012.1 |
| 20260906003525 | 28 | 7 | 8.0 | 20.9 | 0.00 | 0.00 | 0.00 | 79 | 1011.7 |
| 20260906003019 | 28 | 31 | 8.0 | 20.9 | 0.00 | 0.00 | 0.00 | 78 | 1011.7 |
| 20260906002513 | 28 | 37 | 6.4 | 14.5 | 0.00 | 0.00 | 0.00 | 78 | 1011.7 |
| 20260906002003 | 28 | 36 | 6.4 | 16.1 | 0.00 | 0.00 | 0.00 | 78 | 1011.7 |
| 20260906001457 | 28 | 12 | 6.4 | 16.1 | 0.00 | 0.00 | 0.00 | 78 | 1011.7 |
| 20260906000433 | 29 | 46 | 6.4 | 14.5 | 0.00 | 0.00 | 0.00 | 77 | 1011.6 |
| 20260905235925 | 29 | 21 | 6.4 | 14.5 | 0.00 | 0.00 | 0.00 | 76 | 1011.6 |
| 20260905234912 | 30 | 7 | 6.4 | 17.7 | 0.00 | 0.00 | 0.00 | 75 | 1011.7 |
| 20260905234408 | 30 | 51 | 9.7 | 17.7 | 0.00 | 0.00 | 0.00 | 75 | 1011.7 |
| 20260905233908 | 30 | 339 | 8.0 | 20.9 | 0.00 | 0.00 | 0.00 | 74 | 1011.7 |
| 20260905232900 | 30 | 12 | 8.0 | 16.1 | 0.00 | 0.00 | 0.00 | 74 | 1011.6 |
| 20260905232402 | 31 | 12 | 8.0 | 17.7 | 0.00 | 0.00 | 0.00 | 73 | 1011.6 |
| 20260905231856 | 31 | 49 | 8.0 | 17.7 | 0.00 | 0.00 | 0.00 | 72 | 1011.4 |
| 20260905225858 | 31 | 38 | 9.7 | 17.7 | 0.00 | 0.00 | 0.00 | 69 | 1011.2 |
| 20260905225358 | 32 | 49 | 9.7 | 19.3 | 0.00 | 0.00 | 0.00 | 68 | 1011.2 |
| 20260905224338 | 32 | 44 | 8.0 | 17.7 | 0.00 | 0.00 | 0.00 | 67 | 1011.2 |
| 20260905223828 | 32 | 63 | 6.4 | 14.5 | 0.00 | 0.00 | 0.00 | 67 | 1011.2 |
| 20260905222305 | 32 | 32 | 6.4 | 17.7 | 0.00 | 0.00 | 0.00 | 68 | 1011.2 |
| 20260905221756 | 32 | 28 | 8.0 | 17.7 | 0.00 | 0.00 | 0.00 | 68 | 1011.2 |
| 20260905221245 | 32 | 1 | 9.7 | 20.9 | 0.00 | 0.00 | 0.00 | 68 | 1011.2 |
| 20260905220233 | 33 | 2 | 9.7 | 20.9 | 0.00 | 0.00 | 0.00 | 66 | 1011.1 |
| 20260905215728 | 33 | 27 | 6.4 | 17.7 | 0.00 | 0.00 | 0.00 | 67 | 1011.1 |
| 20260905214707 | 33 | 7 | 4.8 | 14.5 | 0.00 | 0.00 | 0.00 | 66 | 1011.1 |
| 20260905214158 | 33 | 344 | 4.8 | 11.3 | 0.00 | 0.00 | 0.00 | 68 | 1011.1 |
| 20260905213652 | 32 | 21 | 6.4 | 14.5 | 0.00 | 0.00 | 0.00 | 67 | 1011.1 |
| 20260905213141 | 33 | 17 | 6.4 | 14.5 | 0.00 | 0.00 | 0.00 | 67 | 1011.1 |
| 20260905212125 | 33 | 12 | 6.4 | 16.1 | 0.00 | 0.00 | 0.00 | 66 | 1011.1 |
| 20260905211616 | 33 | 346 | 8.0 | 16.1 | 0.00 | 0.00 | 0.00 | 66 | 1011.1 |
| 20260905211105 | 33 | 21 | 6.4 | 14.5 | 0.00 | 0.00 | 0.00 | 65 | 1011.1 |
| 20260905210605 | 33 | 39 | 6.4 | 16.1 | 0.00 | 0.00 | 0.00 | 66 | 1011.5 |
| 20260905210105 | 33 | 21 | 6.4 | 16.1 | 0.00 | 0.00 | 0.00 | 67 | 1011.5 |
| 20260905205605 | 33 | 36 | 8.0 | 16.1 | 0.00 | 0.00 | 0.00 | 65 | 1011.5 |
| 20260905205106 | 33 | 7 | 8.0 | 17.7 | 0.00 | 0.00 | 0.00 | 66 | 1011.4 |
| 20260905204604 | 33 | 343 | 8.0 | 17.7 | 0.00 | 0.00 | 0.00 | 66 | 1011.4 |
| 20260905204101 | 33 | 50 | 6.4 | 16.1 | 0.00 | 0.00 | 0.00 | 67 | 1011.4 |
| 20260905203559 | 33 | 38 | 8.0 | 17.7 | 0.00 | 0.00 | 0.00 | 66 | 1011.5 |
| 20260905203055 | 33 | 49 | 8.0 | 17.7 | 0.00 | 0.00 | 0.00 | 66 | 1011.5 |
| 20260905202554 | 33 | 7 | 8.0 | 14.5 | 0.00 | 0.00 | 0.00 | 66 | 1011.5 |
| 20260905202052 | 33 | 12 | 6.4 | 14.5 | 0.00 | 0.00 | 0.00 | 66 | 1011.4 |
| 20260905201053 | 34 | 12 | 6.4 | 16.1 | 0.00 | 0.00 | 0.00 | 65 | 1011.4 |
| 20260905200553 | 34 | 44 | 8.0 | 16.1 | 0.00 | 0.00 | 0.00 | 64 | 1011.5 |
| 20260905200044 | 34 | 34 | 8.0 | 17.7 | 0.00 | 0.00 | 0.00 | 62 | 1011.5 |
| 20260905195546 | 35 | 25 | 8.0 | 19.3 | 0.00 | 0.00 | 0.00 | 64 | 1011.5 |
| 20260905195043 | 35 | 21 | 4.8 | 19.3 | 0.00 | 0.00 | 0.00 | 61 | 1011.5 |
| 20260905194544 | 35 | 7 | 3.2 | 8.0 | 0.00 | 0.00 | 0.00 | 63 | 1011.5 |
| 20260905194034 | 35 | 21 | 3.2 | 14.5 | 0.00 | 0.00 | 0.00 | 63 | 1011.5 |
| 20260905193529 | 35 | 321 | 6.4 | 16.1 | 0.00 | 0.00 | 0.00 | 63 | 1011.5 |
| 20260905193029 | 34 | 54 | 6.4 | 16.1 | 0.00 | 0.00 | 0.00 | 62 | 1011.5 |
| 20260905192509 | 34 | 29 | 4.8 | 14.5 | 0.00 | 0.00 | 0.00 | 65 | 1011.5 |
| 20260905191958 | 34 | 7 | 6.4 | 16.1 | 0.00 | 0.00 | 0.00 | 64 | 1011.6 |
| 20260905191451 | 34 | 306 | 4.8 | 16.1 | 0.00 | 0.00 | 0.00 | 61 | 1011.6 |
| 20260905190947 | 34 | 7 | 4.8 | 11.3 | 0.00 | 0.00 | 0.00 | 67 | 1011.6 |
| 20260905190440 | 34 | 330 | 4.8 | 11.3 | 0.00 | 0.00 | 0.00 | 65 | 1011.7 |
| 20260905185932 | 34 | 7 | 3.2 | 9.7 | 0.00 | 0.00 | 0.00 | 63 | 1011.7 |
| 20260905185425 | 34 | 321 | 1.6 | 6.4 | 0.00 | 0.00 | 0.00 | 64 | 1011.7 |
| 20260905184916 | 34 | 21 | 1.6 | 6.4 | 0.00 | 0.00 | 0.00 | 63 | 1012.0 |
| 20260905184406 | 34 | 310 | 3.2 | 19.3 | 0.00 | 0.00 | 0.00 | 62 | 1012.0 |
| 20260905183855 | 34 | 337 | 3.2 | 19.3 | 0.00 | 0.00 | 0.00 | 63 | 1012.0 |
| 20260905183345 | 34 | 334 | 3.2 | 9.7 | 0.00 | 0.00 | 0.00 | 61 | 1012.1 |
| 20260905182331 | 35 | 7 | 3.2 | 9.7 | 0.00 | 0.00 | 0.00 | 61 | 1012.1 |
| 20260905181819 | 35 | 323 | 3.2 | 8.0 | 0.00 | 0.00 | 0.00 | 62 | 1012.1 |
| 20260905181304 | 35 | 7 | 4.8 | 11.3 | 0.00 | 0.00 | 0.00 | 63 | 1012.1 |
| 20260905180807 | 34 | 2 | 3.2 | 11.3 | 0.00 | 0.00 | 0.00 | 61 | 1012.1 |
| 20260905175754 | 34 | 353 | 3.2 | 8.0 | 0.00 | 0.00 | 0.00 | 66 | 1012.1 |
| 20260905175255 | 34 | 322 | 4.8 | 16.1 | 0.00 | 0.00 | 0.00 | 68 | 1012.1 |
| 20260905174748 | 34 | 29 | 6.4 | 16.1 | 0.00 | 0.00 | 0.00 | 63 | 1012.2 |
| 20260905173239 | 34 | 25 | 3.2 | 9.7 | 0.00 | 0.00 | 0.00 | 64 | 1012.2 |
| 20260905172732 | 34 | 7 | 1.6 | 6.4 | 0.00 | 0.00 | 0.00 | 64 | 1012.2 |
| 20260905171719 | 34 | 321 | 1.6 | 6.4 | 0.00 | 0.00 | 0.00 | 63 | 1012.3 |
| 20260905171207 | 34 | 336 | 3.2 | 9.7 | 0.00 | 0.00 | 0.00 | 62 | 1012.3 |
| 20260905170655 | 34 | 40 | 3.2 | 11.3 | 0.00 | 0.00 | 0.00 | 64 | 1012.5 |
| 20260905170140 | 34 | 43 | 3.2 | 11.3 | 0.00 | 0.00 | 0.00 | 64 | 1012.5 |
| 20260905165131 | 34 | 12 | 3.2 | 16.1 | 0.00 | 0.00 | 0.00 | 63 | 1012.6 |
| 20260905164626 | 34 | 327 | 3.2 | 16.1 | 0.00 | 0.00 | 0.00 | 63 | 1012.6 |
| 20260905164127 | 33 | 341 | 3.2 | 11.3 | 0.00 | 0.00 | 0.00 | 63 | 1012.6 |
| 20260905163621 | 33 | 291 | 3.2 | 14.5 | 0.00 | 0.00 | 0.00 | 64 | 1012.6 |
| 20260905162619 | 33 | 277 | 1.6 | 6.4 | 0.00 | 0.00 | 0.00 | 67 | 1012.6 |
| 20260905162111 | 33 | 355 | 1.6 | 6.4 | 0.00 | 0.00 | 0.00 | 65 | 1012.6 |
| 20260905161608 | 33 | 318 | 1.6 | 6.4 | 0.00 | 0.00 | 0.00 | 65 | 1012.6 |
| 20260905161109 | 33 | 56 | 3.2 | 6.4 | 0.00 | 0.00 | 0.00 | 68 | 1012.6 |
| 20260905160601 | 33 | 29 | 3.2 | 8.0 | 0.00 | 0.00 | 0.00 | 68 | 1012.5 |
| 20260905160052 | 33 | 226 | 1.6 | 8.0 | 0.00 | 0.00 | 0.00 | 68 | 1012.5 |
| 20260905155549 | 33 | 327 | 3.2 | 8.0 | 0.00 | 0.00 | 0.00 | 67 | 1012.5 |
| 20260905155038 | 33 | 357 | 3.2 | 9.7 | 0.00 | 0.00 | 0.00 | 67 | 1012.6 |
| 20260905153508 | 32 | 345 | 1.6 | 6.4 | 0.00 | 0.00 | 0.00 | 70 | 1012.6 |
| 20260905153000 | 32 | 349 | 1.6 | 6.4 | 0.00 | 0.00 | 0.00 | 74 | 1012.6 |
| 20260905152457 | 32 | 305 | 1.6 | 8.0 | 0.00 | 0.00 | 0.00 | 69 | 1012.6 |
| 20260905151956 | 31 | 319 | 1.6 | 8.0 | 0.00 | 0.00 | 0.00 | 70 | 1012.6 |
| 20260905151451 | 31 | 21 | 0.0 | 3.2 | 0.00 | 0.00 | 0.00 | 73 | 1012.6 |
| 20260905150951 | 31 | 7 | 1.6 | 4.8 | 0.00 | 0.00 | 0.00 | 75 | 1012.6 |
| 20260905145941 | 31 | 288 | 1.6 | 6.4 | 0.00 | 0.00 | 0.00 | 74 | 1012.3 |
| 20260905145434 | 31 | 293 | 0.0 | 3.2 | 0.00 | 0.00 | 0.00 | 73 | 1012.3 |
| 20260905144935 | 30 | 287 | 0.0 | 3.2 | 0.00 | 0.00 | 0.00 | 75 | 1012.2 |
| 20260905144416 | 30 | 287 | 0.0 | 3.2 | 0.00 | 0.00 | 0.00 | 74 | 1012.2 |
| 20260905143917 | 30 | 287 | 0.0 | 4.8 | 0.00 | 0.00 | 0.00 | 76 | 1012.2 |
| 20260905142834 | 30 | 287 | 0.0 | 3.2 | 0.00 | 0.00 | 0.00 | 74 | 1012.2 |
| 20260905142325 | 30 | 296 | 0.0 | 3.2 | 0.00 | 0.00 | 0.00 | 75 | 1012.2 |
| 20260905141821 | 30 | 296 | 0.0 | 3.2 | 0.00 | 0.00 | 0.00 | 76 | 1012.2 |
| 20260905141310 | 29 | 271 | 0.0 | 3.2 | 0.00 | 0.00 | 0.00 | 76 | 1012.2 |
| 20260905140800 | 29 | 271 | 0.0 | 3.2 | 0.00 | 0.00 | 0.00 | 76 | 1012.2 |
| 20260905140248 | 28 | 271 | 1.6 | 4.8 | 0.00 | 0.00 | 0.00 | 76 | 1012.5 |
| 20260905135740 | 28 | 271 | 1.6 | 4.8 | 0.00 | 0.00 | 0.00 | 77 | 1012.5 |
| 20260905135233 | 28 | 277 | 1.6 | 4.8 | 0.00 | 0.00 | 0.00 | 78 | 1012.5 |
| 20260905134724 | 28 | 244 | 0.0 | 3.2 | 0.00 | 0.00 | 0.00 | 79 | 1012.6 |
| 20260905134210 | 28 | 244 | 0.0 | 1.6 | 0.00 | 0.00 | 0.00 | 81 | 1012.6 |
| 20260905133709 | 28 | 244 | 1.6 | 3.2 | 0.00 | 0.00 | 0.00 | 79 | 1012.6 |
| 20260905133153 | 27 | 244 | 1.6 | 4.8 | 0.00 | 0.00 | 0.00 | 81 | 1012.4 |
| 20260905132654 | 27 | 244 | 1.6 | 4.8 | 0.00 | 0.00 | 0.00 | 83 | 1012.4 |